| time (UTC) | temp C | wind direction | speed KPH | gust KPH | rain 1hr cm | rain 24hr cm | rain mn cm | humidity % | barometer mb |
| 20260510094517 | 2 | 311 | 0.0 | 3.2 | 0.00 | 0.61 | 0.03 | 80 | 1011.7 |
| 20260510093517 | 2 | 309 | 0.0 | 3.2 | 0.00 | 0.61 | 0.03 | 80 | 1011.5 |
| 20260510092518 | 2 | 284 | 0.0 | 3.2 | 0.00 | 0.61 | 0.03 | 79 | 1011.2 |
| 20260510091518 | 3 | 317 | 0.0 | 3.2 | 0.00 | 0.61 | 0.03 | 77 | 1011.1 |
| 20260510090518 | 3 | 290 | 1.6 | 4.8 | 0.00 | 0.61 | 0.03 | 76 | 1010.8 |
| 20260510085538 | 3 | 225 | 1.6 | 4.8 | 0.00 | 0.61 | 0.03 | 74 | 1010.5 |
| 20260510084518 | 3 | 245 | 1.6 | 8.0 | 0.00 | 0.61 | 0.03 | 74 | 1010.3 |
| 20260510083518 | 3 | 223 | 1.6 | 8.0 | 0.00 | 0.61 | 0.03 | 73 | 1010.2 |
| 20260510082515 | 3 | 192 | 1.6 | 6.4 | 0.00 | 0.61 | 0.03 | 73 | 1010.1 |
| 20260510081516 | 3 | 166 | 1.6 | 4.8 | 0.00 | 0.61 | 0.03 | 74 | 1010.2 |
| 20260510080516 | 3 | 265 | 1.6 | 3.2 | 0.00 | 0.61 | 0.03 | 75 | 1010.3 |
| 20260510075516 | 3 | 245 | 1.6 | 3.2 | 0.00 | 0.61 | 0.03 | 76 | 1010.3 |
| 20260510074516 | 3 | 269 | 0.0 | 3.2 | 0.00 | 0.61 | 0.03 | 75 | 1010.2 |
| 20260510073516 | 4 | 284 | 0.0 | 4.8 | 0.00 | 0.61 | 0.03 | 74 | 1010.2 |
| 20260510072516 | 4 | 225 | 1.6 | 6.4 | 0.00 | 0.61 | 0.03 | 71 | 1010.0 |
| 20260510071520 | 5 | 167 | 1.6 | 6.4 | 0.00 | 0.61 | 0.03 | 70 | 1009.9 |
| 20260510070518 | 5 | 154 | 1.6 | 4.8 | 0.00 | 0.61 | 0.03 | 70 | 1009.9 |
| 20260510065517 | 5 | 227 | 1.6 | 6.4 | 0.00 | 0.61 | 0.03 | 71 | 1009.9 |
| 20260510064517 | 5 | 272 | 1.6 | 6.4 | 0.00 | 0.61 | 0.03 | 72 | 1010.0 |
| 20260510063517 | 5 | 271 | 1.6 | 8.0 | 0.00 | 0.61 | 0.03 | 71 | 1009.8 |
| 20260510062517 | 5 | 267 | 1.6 | 6.4 | 0.00 | 0.61 | 0.03 | 70 | 1009.9 |
| 20260510061517 | 6 | 153 | 1.6 | 4.8 | 0.00 | 0.61 | 0.03 | 68 | 1009.7 |
| 20260510060517 | 6 | 136 | 3.2 | 9.7 | 0.00 | 0.61 | 0.03 | 67 | 1009.4 |
| 20260510055518 | 6 | 169 | 3.2 | 8.0 | 0.00 | 0.61 | 0.03 | 66 | 1009.3 |
| 20260510054538 | 6 | 174 | 3.2 | 6.4 | 0.00 | 0.61 | 0.03 | 65 | 1009.2 |
| 20260510053538 | 7 | 232 | 3.2 | 11.3 | 0.00 | 0.61 | 0.03 | 64 | 1009.0 |
| 20260510052516 | 7 | 191 | 3.2 | 8.0 | 0.00 | 0.61 | 0.03 | 65 | 1009.0 |
| 20260510051519 | 7 | 267 | 1.6 | 4.8 | 0.00 | 0.61 | 0.03 | 66 | 1008.9 |
| 20260510050516 | 7 | 240 | 1.6 | 6.4 | 0.00 | 0.61 | 0.03 | 64 | 1008.6 |
| 20260510045516 | 7 | 224 | 1.6 | 4.8 | 0.00 | 0.61 | 0.03 | 64 | 1008.5 |
| 20260510044516 | 7 | 260 | 1.6 | 4.8 | 0.00 | 0.61 | 0.03 | 70 | 1008.3 |
| 20260510043516 | 8 | 283 | 1.6 | 3.2 | 0.00 | 0.61 | 0.03 | 69 | 1008.4 |
| 20260510042517 | 8 | 285 | 1.6 | 6.4 | 0.00 | 0.61 | 0.03 | 67 | 1008.2 |
| 20260510041516 | 8 | 167 | 0.0 | 1.6 | 0.00 | 0.61 | 0.03 | 65 | 1007.9 |
| 20260510035517 | 8 | 294 | 1.6 | 4.8 | 0.00 | 0.61 | 0.03 | 60 | 1008.1 |
| 20260510034517 | 8 | 245 | 3.2 | 8.0 | 0.00 | 0.61 | 0.03 | 61 | 1007.4 |
| 20260510033517 | 8 | 134 | 3.2 | 11.3 | 0.00 | 0.61 | 0.03 | 62 | 1007.6 |
| 20260510032517 | 9 | 231 | 1.6 | 6.4 | 0.00 | 0.61 | 0.03 | 62 | 1007.5 |
| 20260510031538 | 9 | 167 | 3.2 | 9.7 | 0.00 | 0.61 | 0.03 | 63 | 1007.5 |
| 20260510030537 | 9 | 160 | 1.6 | 6.4 | 0.00 | 0.61 | 0.03 | 63 | 1007.3 |
| 20260510025537 | 9 | 142 | 3.2 | 9.7 | 0.00 | 0.61 | 0.03 | 63 | 1007.0 |
| 20260510024518 | 10 | 144 | 3.2 | 9.7 | 0.00 | 0.61 | 0.03 | 64 | 1006.7 |
| 20260510023517 | 10 | 167 | 1.6 | 6.4 | 0.00 | 0.61 | 0.03 | 65 | 1006.8 |
| 20260510022518 | 10 | 183 | 3.2 | 8.0 | 0.00 | 0.61 | 0.03 | 69 | 1006.6 |
| 20260510021518 | 10 | 135 | 1.6 | 8.0 | 0.00 | 0.61 | 0.03 | 69 | 1005.9 |
| 20260510020518 | 10 | 129 | 3.2 | 6.4 | 0.00 | 0.61 | 0.03 | 69 | 1006.4 |
| 20260510015516 | 11 | 117 | 3.2 | 9.7 | 0.00 | 0.61 | 0.03 | 73 | 1006.3 |
| 20260510014516 | 11 | 238 | 3.2 | 9.7 | 0.00 | 0.61 | 0.03 | 74 | 1006.1 |
| 20260510013536 | 11 | 175 | 3.2 | 9.7 | 0.03 | 0.61 | 0.03 | 83 | 1005.8 |
| 20260510012536 | 11 | 304 | 0.0 | 1.6 | 0.03 | 0.61 | 0.03 | 89 | 1005.4 |
| 20260510011516 | 11 | 304 | 1.6 | 4.8 | 0.03 | 0.61 | 0.03 | 89 | 1005.1 |
| 20260510010516 | 11 | 287 | 1.6 | 4.8 | 0.03 | 0.61 | 0.03 | 89 | 1004.7 |
| 20260510005516 | 11 | 284 | 1.6 | 3.2 | 0.03 | 0.61 | 0.03 | 89 | 1004.4 |
| 20260510004518 | 11 | 297 | 1.6 | 4.8 | 0.03 | 0.61 | 0.03 | 88 | 1004.2 |
| 20260510003518 | 11 | 317 | 1.6 | 3.2 | 0.00 | 0.61 | 0.00 | 88 | 1004.0 |
| 20260510002518 | 11 | 319 | 1.6 | 3.2 | 0.00 | 0.61 | 0.00 | 87 | 1003.8 |
| 20260510001537 | 11 | 329 | 1.6 | 3.2 | 0.00 | 0.61 | 0.00 | 86 | 1003.8 |
| 20260510000517 | 12 | 325 | 1.6 | 3.2 | 0.00 | 0.61 | 0.00 | 85 | 1003.8 |
| 20260509235517 | 12 | 328 | 1.6 | 3.2 | 0.00 | 0.61 | 0.00 | 83 | 1003.8 |
| 20260509234517 | 12 | 336 | 1.6 | 4.8 | 0.00 | 0.61 | 0.00 | 82 | 1003.6 |
| 20260509233518 | 12 | 317 | 1.6 | 4.8 | 0.00 | 0.61 | 0.00 | 81 | 1003.5 |
| 20260509232518 | 13 | 320 | 1.6 | 6.4 | 0.00 | 0.61 | 0.00 | 79 | 1003.2 |
| 20260509231518 | 13 | 329 | 3.2 | 8.0 | 0.00 | 0.61 | 0.00 | 78 | 1003.1 |
| 20260509230518 | 14 | 296 | 3.2 | 6.4 | 0.00 | 0.61 | 0.00 | 76 | 1002.8 |
| 20260509225536 | 14 | 287 | 1.6 | 9.7 | 0.00 | 0.61 | 0.61 | 76 | 1002.6 |
| 20260509224516 | 13 | 310 | 1.6 | 8.0 | 0.00 | 0.61 | 0.61 | 77 | 1002.4 |
| 20260509223516 | 13 | 338 | 3.2 | 8.0 | 0.00 | 0.61 | 0.61 | 79 | 1002.3 |
| 20260509222536 | 13 | 302 | 1.6 | 6.4 | 0.00 | 0.61 | 0.61 | 79 | 1002.2 |
| 20260509221516 | 13 | 322 | 3.2 | 8.0 | 0.00 | 0.61 | 0.61 | 82 | 1002.1 |
| 20260509220516 | 13 | 323 | 3.2 | 8.0 | 0.00 | 0.61 | 0.61 | 83 | 1002.1 |
| 20260509215517 | 13 | 282 | 4.8 | 12.9 | 0.13 | 0.61 | 0.61 | 83 | 1002.2 |
| 20260509214517 | 13 | 298 | 4.8 | 11.3 | 0.36 | 0.61 | 0.61 | 83 | 1002.2 |
| 20260509213516 | 14 | 322 | 3.2 | 8.0 | 0.51 | 0.61 | 0.61 | 84 | 1002.0 |
| 20260509212517 | 13 | 343 | 1.6 | 8.0 | 0.58 | 0.61 | 0.61 | 90 | 1001.7 |
| 20260509211517 | 12 | 319 | 4.8 | 11.3 | 0.58 | 0.61 | 0.61 | 91 | 1001.9 |
| 20260509210517 | 12 | 354 | 4.8 | 12.9 | 0.58 | 0.58 | 0.58 | 91 | 1002.2 |
| 20260509205537 | 12 | 298 | 4.8 | 12.9 | 0.46 | 0.48 | 0.48 | 90 | 1002.8 |
| 20260509204518 | 13 | 304 | 3.2 | 8.0 | 0.23 | 0.25 | 0.25 | 85 | 1002.6 |
| 20260509203518 | 13 | 318 | 3.2 | 11.3 | 0.08 | 0.10 | 0.10 | 80 | 1002.0 |
| 20260509202518 | 14 | 328 | 3.2 | 9.7 | 0.00 | 0.03 | 0.03 | 76 | 1001.7 |
| 20260509201518 | 14 | 330 | 4.8 | 11.3 | 0.00 | 0.03 | 0.03 | 75 | 1001.6 |
| 20260509200538 | 15 | 349 | 4.8 | 11.3 | 0.00 | 0.03 | 0.03 | 75 | 1001.8 |
| 20260509195519 | 15 | 335 | 4.8 | 12.9 | 0.00 | 0.03 | 0.03 | 75 | 1001.8 |
| 20260509194515 | 15 | 342 | 4.8 | 9.7 | 0.00 | 0.03 | 0.03 | 74 | 1001.7 |
| 20260509193515 | 15 | 347 | 4.8 | 11.3 | 0.00 | 0.03 | 0.03 | 73 | 1001.7 |
| 20260509192536 | 15 | 4 | 4.8 | 11.3 | 0.00 | 0.03 | 0.03 | 73 | 1001.9 |
| 20260509191516 | 15 | 353 | 4.8 | 9.7 | 0.00 | 0.03 | 0.03 | 73 | 1002.0 |
| 20260509190536 | 15 | 1 | 4.8 | 11.3 | 0.00 | 0.03 | 0.03 | 76 | 1002.1 |
| 20260509185516 | 15 | 321 | 6.4 | 17.7 | 0.00 | 0.00 | 0.00 | 72 | 1002.7 |
| 20260509184536 | 15 | 330 | 3.2 | 9.7 | 0.00 | 0.00 | 0.00 | 71 | 1002.9 |
| 20260509183517 | 15 | 347 | 4.8 | 9.7 | 0.00 | 0.00 | 0.00 | 71 | 1002.6 |
| 20260509182517 | 16 | 355 | 3.2 | 9.7 | 0.00 | 0.00 | 0.00 | 69 | 1002.8 |
| 20260509181517 | 16 | 356 | 4.8 | 9.7 | 0.00 | 0.00 | 0.00 | 67 | 1002.6 |
| 20260509180517 | 17 | 355 | 4.8 | 11.3 | 0.00 | 0.00 | 0.00 | 65 | 1002.8 |
| 20260509175517 | 17 | 346 | 4.8 | 12.9 | 0.00 | 0.00 | 0.00 | 63 | 1002.4 |
| 20260509174517 | 17 | 345 | 4.8 | 12.9 | 0.00 | 0.00 | 0.00 | 63 | 1002.3 |
| 20260509173518 | 17 | 3 | 4.8 | 12.9 | 0.00 | 0.00 | 0.00 | 62 | 1002.8 |
| 20260509172518 | 18 | 351 | 4.8 | 12.9 | 0.00 | 0.00 | 0.00 | 61 | 1002.8 |
| 20260509171538 | 17 | 7 | 4.8 | 9.7 | 0.00 | 0.00 | 0.00 | 63 | 1002.9 |
| 20260509170518 | 17 | 333 | 4.8 | 11.3 | 0.00 | 0.00 | 0.00 | 64 | 1002.9 |
| 20260509165518 | 17 | 2 | 4.8 | 9.7 | 0.00 | 0.00 | 0.00 | 64 | 1003.0 |
| 20260509164519 | 17 | 350 | 4.8 | 11.3 | 0.00 | 0.00 | 0.00 | 64 | 1003.6 |
| 20260509163518 | 16 | 328 | 4.8 | 11.3 | 0.00 | 0.00 | 0.00 | 65 | 1003.8 |
| 20260509162516 | 16 | 318 | 4.8 | 14.5 | 0.00 | 0.00 | 0.00 | 68 | 1004.4 |
| 20260509161516 | 16 | 333 | 3.2 | 16.1 | 0.00 | 0.00 | 0.00 | 67 | 1004.5 |
| 20260509160516 | 16 | 354 | 3.2 | 11.3 | 0.00 | 0.00 | 0.00 | 67 | 1004.5 |
| 20260509155516 | 16 | 4 | 3.2 | 8.0 | 0.00 | 0.00 | 0.00 | 70 | 1004.2 |
| 20260509154516 | 15 | 328 | 4.8 | 11.3 | 0.00 | 0.00 | 0.00 | 71 | 1004.2 |
| 20260509153516 | 16 | 334 | 3.2 | 11.3 | 0.00 | 0.00 | 0.00 | 71 | 1004.4 |
| 20260509152516 | 16 | 335 | 4.8 | 12.9 | 0.00 | 0.00 | 0.00 | 70 | 1004.2 |
| 20260509151517 | 15 | 345 | 4.8 | 16.1 | 0.00 | 0.00 | 0.00 | 74 | 1004.1 |
| 20260509150517 | 15 | 330 | 3.2 | 8.0 | 0.00 | 0.00 | 0.00 | 75 | 1004.4 |
| 20260509145517 | 14 | 341 | 3.2 | 8.0 | 0.00 | 0.00 | 0.00 | 78 | 1004.7 |
| 20260509144519 | 14 | 340 | 3.2 | 8.0 | 0.00 | 0.00 | 0.00 | 78 | 1004.7 |
| 20260509143517 | 13 | 328 | 3.2 | 11.3 | 0.00 | 0.00 | 0.00 | 81 | 1004.7 |
| 20260509142518 | 13 | 328 | 3.2 | 9.7 | 0.00 | 0.00 | 0.00 | 82 | 1004.8 |
| 20260509141517 | 12 | 347 | 3.2 | 9.7 | 0.00 | 0.00 | 0.00 | 85 | 1004.8 |
| 20260509140519 | 12 | 345 | 1.6 | 8.0 | 0.00 | 0.00 | 0.00 | 87 | 1004.9 |
| 20260509135518 | 12 | 328 | 4.8 | 11.3 | 0.00 | 0.00 | 0.00 | 88 | 1004.9 |
| 20260509134518 | 11 | 331 | 3.2 | 12.9 | 0.00 | 0.00 | 0.00 | 90 | 1005.0 |
| 20260509133519 | 11 | 323 | 3.2 | 4.8 | 0.00 | 0.00 | 0.00 | 92 | 1005.1 |
| 20260509132519 | 11 | 323 | 3.2 | 9.7 | 0.00 | 0.00 | 0.00 | 93 | 1005.2 |
| 20260509131536 | 10 | 327 | 3.2 | 8.0 | 0.00 | 0.00 | 0.00 | 94 | 1005.3 |
| 20260509130536 | 10 | 320 | 1.6 | 6.4 | 0.00 | 0.00 | 0.00 | 95 | 1005.2 |
| 20260509125516 | 10 | 321 | 3.2 | 6.4 | 0.00 | 0.00 | 0.00 | 98 | 1005.2 |
| 20260509124516 | 10 | 328 | 1.6 | 8.0 | 0.00 | 0.00 | 0.00 | 99 | 1005.4 |
| 20260509123516 | 9 | 325 | 3.2 | 8.0 | 0.00 | 0.00 | 0.00 | 99 | 1005.5 |
| 20260509122516 | 9 | 347 | 1.6 | 6.4 | 0.00 | 0.00 | 0.00 | 99 | 1005.5 |
| 20260509121516 | 9 | 326 | 1.6 | 6.4 | 0.00 | 0.00 | 0.00 | 99 | 1005.6 |
| 20260509120517 | 8 | 350 | 1.6 | 6.4 | 0.00 | 0.00 | 0.00 | 99 | 1005.6 |
| 20260509115518 | 8 | 7 | 3.2 | 8.0 | 0.00 | 0.00 | 0.00 | 99 | 1005.7 |
| 20260509114517 | 8 | 354 | 3.2 | 6.4 | 0.00 | 0.00 | 0.00 | 98 | 1005.6 |
| 20260509113517 | 8 | 2 | 1.6 | 4.8 | 0.00 | 0.00 | 0.00 | 98 | 1005.6 |
| 20260509112538 | 8 | 0 | 1.6 | 6.4 | 0.00 | 0.00 | 0.00 | 98 | 1005.5 |
| 20260509111517 | 8 | 1 | 1.6 | 6.4 | 0.00 | 0.00 | 0.00 | 98 | 1005.5 |
| 20260509110518 | 8 | 310 | 3.2 | 8.0 | 0.00 | 0.00 | 0.00 | 98 | 1005.6 |
| 20260509105518 | 8 | 339 | 1.6 | 6.4 | 0.00 | 0.00 | 0.00 | 98 | 1005.4 |
| 20260509104518 | 8 | 335 | 1.6 | 4.8 | 0.00 | 0.00 | 0.00 | 97 | 1005.5 |
| 20260509103518 | 7 | 340 | 1.6 | 4.8 | 0.00 | 0.00 | 0.00 | 97 | 1005.5 |
| 20260509102518 | 7 | 339 | 1.6 | 6.4 | 0.00 | 0.00 | 0.00 | 97 | 1005.5 |
| 20260509101519 | 7 | 325 | 1.6 | 4.8 | 0.00 | 0.00 | 0.00 | 97 | 1005.5 |
| 20260509100516 | 7 | 319 | 1.6 | 4.8 | 0.00 | 0.00 | 0.00 | 96 | 1005.7 |
| 20260509095516 | 7 | 348 | 1.6 | 3.2 | 0.00 | 0.00 | 0.00 | 96 | 1005.7 |